Regional Weather Roundup
Issued by NWS

Home | Current Version | Previous Version | Text Only | Print | Product List | Glossary Off
Versions: 1 2 3 4 5 6 7 8 9 10 11 12 13 14 15 16 17 18 19 20 21 22 23 24 25 26 27 28 29 30 31 32 33 34 35 36 37 38 39 40 41 42 43 44 45 46 47 48 49 50

000
ASUS45 KABQ 250401
RWRNM
NEW MEXICO REGIONAL WEATHER ROUNDUP
NATIONAL WEATHER SERVICE ALBUQUERQUE NM
1000 PM MDT FRI MAR 24 2017

NOTE: "FAIR" MEANS FEW OR NO CLOUDS BELOW 12,000 FEET AGL WITH NO
       SIGNIFICANT WEATHER OR OBSTRUCTIONS TO VISION.

      THIS PRODUCT IS RELEASED AS TWO VERSIONS.  ONE VERSION NEAR
      THE TOP OF THE HOUR CONTAINING PRELIMINARY DATA FROM ALBUQUERQUE
      AND OTHER STATIONS.  A FINAL VERSION WITH ADDITIONAL DATA IS
      ISSUED ABOUT 10 MINUTES AFTER THE HOUR.

NMZ501-503-504-510>518-250500-
NORTHWEST PLATEAU/NORTHCENTRAL MOUNTAINS

CITY           SKY/WX    TMP DP  RH WIND       PRES   REMARKS
FARMINGTON     FAIR      47  22  37 NW9       30.14R
LOS ALAMOS     FAIR      48  22  35 W9        30.19S
SANTA FE       FAIR      43  30  60 S5        30.16R
TAOS             N/A     34  23  64 N7        30.20R WCI  28
ANGEL FIRE     FAIR      28  26  93 NE3       30.22R

$$
NMZ402-403-502-505>509-250500-
WESTCENTRAL MOUNTAINS/SOUTHWEST MOUNTAINS

CITY           SKY/WX    TMP DP  RH WIND       PRES   REMARKS
GALLUP         FAIR      42  23  46 CALM      30.22R
GRANTS         FAIR      43  21  41 NW7G16    30.23R
SILVER CITY    FAIR      49  27  42 N10       30.21R

$$
NMZ407-409-411-412-250500-
SOUTHERN DESERTS

CITY           SKY/WX    TMP DP  RH WIND       PRES   REMARKS
DEMING         FAIR      58  27  30 W7        30.16R
LAS CRUCES     FAIR      60  24  25 W17       30.13R
HOLLOMAN AFB   FAIR      60  21  22 SW8       30.14R
ALAMOGORDO     FAIR      54  25  32 S8        30.12R
T OR C         FAIR      60  21  22 NW12      30.13R

$$
NMZ519>523-250500-
CENTRAL VALLEYS/CENTRAL HIGHLANDS

CITY           SKY/WX    TMP DP  RH WIND       PRES   REMARKS
ALBUQUERQUE    FAIR      57  16  20 N9        30.16R
DOUBLE EAGLE   CLEAR     52  18  25 NW3       30.18R
MORIARTY ARPT  FAIR      44  23  44 E5        30.19R
CLINES CORNERS FAIR      37  25  61 S10       30.22R WCI  30
BELEN          FAIR      51  13  22 NW8       30.16R
SOCORRO        FAIR      61  22  22 W13G23    30.13R

$$
NMZ524>526-539-540-250500-
SOUTHCENTRAL MOUNTAINS

CITY           SKY/WX    TMP DP  RH WIND       PRES   REMARKS
RUIDOSO        NOT AVBL

$$
NMZ527>531-250500-
NORTHEAST HIGHLANDS/NORTHEAST PLAINS

CITY           SKY/WX    TMP DP  RH WIND       PRES   REMARKS
LAS VEGAS      FAIR      30  25  81 SE6       30.19R WCI  24
RATON          NOT AVBL
CLAYTON        FAIR      39  36  89 NW8       30.12F WCI  33

$$
NMZ532>537-250500-
EASTCENTRAL PLAINS

CITY           SKY/WX    TMP DP  RH WIND       PRES   REMARKS
TUCUMCARI      FAIR      46  32  58 NE7       30.13R
CANNON AFB     FAIR      44  31  60 N15       30.13R
CLOVIS AIRPORT FAIR      43  30  61 N17       30.13R

$$
NMZ028-029-538-250500-
SOUTHEAST PLAINS

CITY           SKY/WX    TMP DP  RH WIND       PRES   REMARKS
ROSWELL        FAIR      54  27  35 NE8         N/A
ARTESIA        FAIR      54  28  37 N9        30.14R
CARLSBAD       FAIR      60  28  29 N13       30.12R
HOBBS          FAIR      54  28  37 N14       30.14R


$$




USA.gov is the U.S. government's official web portal to all federal, state and local government web resources and services.